• In Netherlands
  • List of Countries
  • For 7 days
  • Water Temperature
  • Satellite Maps
  • Weather Map
  • Weather Widgets
  • user-avatar
    Login

    Hourly Weather Qala i Naw

    Today, 23 March, Thursday

    Time Temperature Precipitation Wind Pressure Humidity
    00:00 +13°C° 0 mm 2 mps 682 mmHg 66%
    01:00 +12°C° 0 mm 3 mps 682 mmHg 69%
    02:00 +12°C° 0 mm 2 mps 682 mmHg 73%
    03:00 +10°C° 0 mm 2 mps 682 mmHg 77%
    04:00 +10°C° 0 mm 1 mps 682 mmHg 88%
    05:00 +10°C° 0 mm 1 mps 683 mmHg 83%
    06:00 +11°C° 0 mm 1 mps 683 mmHg 78%
    07:00 +12°C° 0 mm 1 mps 683 mmHg 73%
    08:00 +14°C° 0 mm 2 mps 683 mmHg 62%
    09:00 +16°C° 0 mm 2 mps 684 mmHg 51%
    10:00 +18°C° 0 mm 3 mps 684 mmHg 39%
    11:00 +19°C° 0 mm 3 mps 684 mmHg 35%
    12:00 +20°C° 0 mm 3 mps 683 mmHg 31%
    13:00 +21°C° 0 mm 3 mps 683 mmHg 27%
    14:00 +21°C° 0 mm 3 mps 683 mmHg 27%
    15:00 +21°C° 0 mm 3 mps 682 mmHg 28%
    16:00 +21°C° 0 mm 3 mps 682 mmHg 29%
    17:00 +20°C° 0 mm 3 mps 681 mmHg 35%
    18:00 +18°C° 0 mm 2 mps 681 mmHg 42%
    19:00 +16°C° 0 mm 2 mps 681 mmHg 48%
    20:00 +16°C° 0 mm 2 mps 681 mmHg 47%
    21:00 +15°C° 0 mm 2 mps 681 mmHg 46%
    22:00 +15°C° 0 mm 2 mps 681 mmHg 45%
    23:00 +15°C° 0 mm 2 mps 680 mmHg 43%

    Tomorrow, 24 March, Friday

    Time Temperature Precipitation Wind Pressure Humidity
    00:00 +15°C° 0 mm 2 mps 680 mmHg 42%
    01:00 +13°C° 0 mm 3 mps 680 mmHg 40%
    02:00 +13°C° 0 mm 3 mps 680 mmHg 40%
    03:00 +13°C° 0 mm 3 mps 680 mmHg 40%
    04:00 +13°C° 0 mm 3 mps 680 mmHg 41%
    05:00 +13°C° 0 mm 3 mps 680 mmHg 43%
    06:00 +15°C° 0 mm 2 mps 680 mmHg 45%
    07:00 +15°C° 0 mm 2 mps 680 mmHg 47%
    08:00 +16°C° 0 mm 3 mps 681 mmHg 45%
    09:00 +18°C° 0 mm 3 mps 681 mmHg 43%
    10:00 +19°C° 0 mm 3 mps 681 mmHg 40%
    11:00 +19°C° 0 mm 3 mps 681 mmHg 42%
    12:00 +19°C° 0 mm 4 mps 681 mmHg 43%
    13:00 +19°C° 0 mm 4 mps 681 mmHg 45%
    14:00 +18°C° 0.1 mm 4 mps 681 mmHg 50%
    15:00 +17°C° 0.1 mm 4 mps 680 mmHg 54%
    16:00 +15°C° 0.1 mm 4 mps 680 mmHg 59%
    17:00 +14°C° 0.1 mm 3 mps 680 mmHg 64%
    18:00 +13°C° 0.1 mm 3 mps 681 mmHg 68%
    19:00 +12°C° 0.1 mm 3 mps 681 mmHg 73%
    20:00 +12°C° 0 mm 3 mps 681 mmHg 77%
    21:00 +11°C° 0 mm 3 mps 681 mmHg 80%
    22:00 +11°C° 0 mm 3 mps 681 mmHg 83%
    23:00 +11°C° 0 mm 3 mps 681 mmHg 84%

    Day after tomorrow, 25 March, Saturday

    Time Temperature Precipitation Wind Pressure Humidity
    00:00 +10°C° 0 mm 3 mps 681 mmHg 85%
    01:00 +10°C° 0 mm 3 mps 680 mmHg 86%
    02:00 +10°C° 0.1 mm 3 mps 680 mmHg 87%
    03:00 +10°C° 0.1 mm 2 mps 680 mmHg 88%
    04:00 +10°C° 0.1 mm 2 mps 680 mmHg 89%
    05:00 +10°C° 0.2 mm 2 mps 681 mmHg 88%
    06:00 +10°C° 0.2 mm 2 mps 681 mmHg 88%
    07:00 +10°C° 0.2 mm 2 mps 681 mmHg 87%
    08:00 +11°C° 0 mm 3 mps 681 mmHg 82%
    09:00 +12°C° 0 mm 3 mps 682 mmHg 77%
    10:00 +13°C° 0 mm 3 mps 682 mmHg 71%
    11:00 +14°C° 0 mm 4 mps 682 mmHg 70%
    12:00 +14°C° 0 mm 4 mps 682 mmHg 68%
    13:00 +15°C° 0 mm 5 mps 681 mmHg 67%
    14:00 +14°C° 0 mm 5 mps 681 mmHg 70%
    15:00 +14°C° 0 mm 4 mps 681 mmHg 73%
    16:00 +13°C° 0 mm 4 mps 681 mmHg 77%
    17:00 +12°C° 0 mm 3 mps 681 mmHg 79%
    18:00 +12°C° 0 mm 3 mps 681 mmHg 82%
    19:00 +12°C° 0 mm 2 mps 682 mmHg 85%
    20:00 +12°C° 0 mm 2 mps 682 mmHg 85%
    21:00 +12°C° 0 mm 2 mps 682 mmHg 86%
    22:00 +12°C° 0 mm 2 mps 682 mmHg 86%
    23:00 +12°C° 0 mm 2 mps 682 mmHg 86%

    26 March, Sunday

    Time Temperature Precipitation Wind Pressure Humidity
    00:00 +12°C° 0 mm 2 mps 681 mmHg 86%
    01:00 +12°C° 0 mm 2 mps 681 mmHg 87%
    02:00 +10°C° 0.8 mm 2 mps 681 mmHg 88%
    03:00 +11°C° 0.8 mm 1 mps 681 mmHg 90%
    04:00 +11°C° 0.8 mm 1 mps 681 mmHg 92%
    05:00 +11°C° 0.9 mm 1 mps 681 mmHg 91%
    06:00 +11°C° 0.9 mm 1 mps 681 mmHg 90%
    07:00 +12°C° 0.9 mm 1 mps 681 mmHg 89%
    08:00 +12°C° 0.3 mm 1 mps 681 mmHg 86%
    09:00 +13°C° 0.3 mm 2 mps 681 mmHg 83%
    10:00 +14°C° 0.3 mm 2 mps 682 mmHg 80%
    11:00 +15°C° 0.1 mm 2 mps 681 mmHg 75%
    12:00 +16°C° 0.1 mm 3 mps 681 mmHg 70%
    13:00 +18°C° 0.1 mm 3 mps 681 mmHg 66%
    14:00 +18°C° 0.2 mm 3 mps 681 mmHg 64%
    15:00 +19°C° 0.2 mm 3 mps 680 mmHg 62%
    16:00 +20°C° 0.2 mm 2 mps 680 mmHg 60%
    17:00 +18°C° 0 mm 2 mps 680 mmHg 65%
    18:00 +17°C° 0 mm 2 mps 680 mmHg 70%
    19:00 +16°C° 0 mm 1 mps 680 mmHg 75%
    20:00 +16°C° 0 mm 1 mps 680 mmHg 74%
    21:00 +16°C° 0 mm 2 mps 681 mmHg 73%
    22:00 +16°C° 0 mm 2 mps 681 mmHg 73%
    23:00 +16°C° 0.1 mm 2 mps 681 mmHg 73%

    27 March, Monday

    Time Temperature Precipitation Wind Pressure Humidity
    00:00 +16°C° 0.1 mm 1 mps 681 mmHg 74%
    01:00 +16°C° 0.1 mm 1 mps 681 mmHg 74%
    02:00 +15°C° 0.1 mm 1 mps 680 mmHg 75%
    03:00 +15°C° 0.1 mm 2 mps 680 mmHg 75%
    04:00 +15°C° 0.1 mm 2 mps 680 mmHg 75%
    05:00 +16°C° 0.3 mm 1 mps 681 mmHg 75%
    06:00 +16°C° 0.3 mm 1 mps 681 mmHg 74%
    07:00 +16°C° 0.3 mm 1 mps 681 mmHg 74%
    08:00 +18°C° 0.2 mm 2 mps 681 mmHg 68%
    09:00 +19°C° 0.2 mm 2 mps 682 mmHg 62%
    10:00 +21°C° 0.2 mm 3 mps 682 mmHg 56%
    11:00 +20°C° 0.4 mm 3 mps 681 mmHg 60%
    12:00 +20°C° 0.4 mm 4 mps 681 mmHg 64%
    13:00 +20°C° 0.4 mm 4 mps 681 mmHg 67%
    14:00 +19°C° 2 mm 5 mps 680 mmHg 73%
    15:00 +17°C° 2 mm 5 mps 680 mmHg 79%
    16:00 +16°C° 2 mm 5 mps 680 mmHg 84%
    17:00 +17°C° 0.3 mm 4 mps 680 mmHg 85%
    18:00 +17°C° 0.3 mm 3 mps 680 mmHg 85%
    19:00 +16°C° 0.3 mm 2 mps 681 mmHg 85%
    20:00 +17°C° 0.3 mm 2 mps 681 mmHg 83%
    21:00 +17°C° 0.3 mm 2 mps 681 mmHg 81%
    22:00 +17°C° 0.3 mm 2 mps 680 mmHg 80%
    23:00 +17°C° 0.6 mm 2 mps 680 mmHg 80%

    28 March, Tuesday

    Time Temperature Precipitation Wind Pressure Humidity
    00:00 +17°C° 0.6 mm 2 mps 680 mmHg 79%
    01:00 +17°C° 0.6 mm 2 mps 680 mmHg 79%
    02:00 +16°C° 1.5 mm 2 mps 679 mmHg 81%
    03:00 +16°C° 1.5 mm 2 mps 679 mmHg 83%
    04:00 +16°C° 1.5 mm 2 mps 679 mmHg 85%
    05:00 +15°C° 3 mm 2 mps 679 mmHg 87%
    06:00 +15°C° 3 mm 2 mps 679 mmHg 89%
    07:00 +14°C° 3 mm 3 mps 679 mmHg 91%
    08:00 +14°C° 2.1 mm 3 mps 679 mmHg 87%
    09:00 +14°C° 2.1 mm 3 mps 680 mmHg 83%
    10:00 +16°C° 2.1 mm 3 mps 680 mmHg 79%
    11:00 +18°C° 0.1 mm 3 mps 680 mmHg 69%
    12:00 +20°C° 0.1 mm 3 mps 681 mmHg 59%
    13:00 +23°C° 0.1 mm 2 mps 681 mmHg 49%
    14:00 +22°C° 0.1 mm 3 mps 681 mmHg 49%
    15:00 +22°C° 0.1 mm 3 mps 680 mmHg 48%
    16:00 +22°C° 0.1 mm 3 mps 680 mmHg 47%
    17:00 +21°C° 0.1 mm 2 mps 680 mmHg 54%
    18:00 +19°C° 0.1 mm 2 mps 681 mmHg 61%
    19:00 +19°C° 0.1 mm 1 mps 681 mmHg 67%
    20:00 +17°C° 0 mm 2 mps 681 mmHg 67%
    21:00 +17°C° 0 mm 2 mps 681 mmHg 66%
    22:00 +17°C° 0 mm 2 mps 682 mmHg 66%
    23:00 +16°C° 0 mm 2 mps 682 mmHg 64%
    Show more